AirNav   Everest Fuels
 
 992 users online  

07A Franklin Field Airport
Union Springs, Alabama, USA

GOING TO UNION SPRINGS?


FAA INFORMATION EFFECTIVE 10 SEPTEMBER 2020

Location

FAA Identifier: 07A
Lat/Long: 32-10-03.3320N 085-48-40.3080W
32-10.055533N 085-48.671800W
32.1675922,-85.8111967
(estimated)
Elevation: 300.5 ft. / 91.6 m (surveyed)
Variation: 01W (1985)
From city: 5 miles W of UNION SPRINGS, AL
Time zone: UTC -5 (UTC -6 during Standard Time)
Zip code: 36089

Airport Operations

Airport use: Open to the public
Activation date: 05/1963
Control tower: no
ARTCC: ATLANTA CENTER
FSS: ANNISTON FLIGHT SERVICE STATION
NOTAMs facility: ANB (NOTAM-D service available)
Attendance: UNATNDD
Wind indicator: lighted
Segmented circle: yes
Lights: ACTVT MIRL RWY 14/32 - CTAF.
Beacon: white-green (lighted land airport)
Operates sunset to sunrise.

Airport Communications

CTAF/UNICOM: 122.8

Nearby radio navigation aids

VOR radial/distance  VOR name  Freq  Var
TGEr199/20.4TUSKEGEE VOR/DME117.3002E
MGMr094/26.0MONTGOMERY VORTAC112.1003E
EUFr289/37.0EUFAULA VORTAC109.2002E

 
NDB name  Hdg/Dist  Freq  Var  ID
BLOOD041/25.236504WTOI - --- ..

Airport Services

Fuel available: 100LL
Parking: tiedowns
Airframe service: NONE
Powerplant service: NONE
Bottled oxygen: NONE
Bulk oxygen: NONE

Runway Information

Runway 14/32

Dimensions: 5002 x 80 ft. / 1525 x 24 m
Surface: asphalt, in fair condition
Weight bearing capacity: 
Single wheel: 15.0
Runway edge lights: medium intensity
RUNWAY 14  RUNWAY 32
Latitude: 32-10.366552N32-09.744485N
Longitude: 085-48.990282W085-48.353370W
Elevation: 292.5 ft.298.6 ft.
Traffic pattern: leftleft
Runway heading: 140 magnetic, 139 true320 magnetic, 319 true
Markings: basic, in good conditionbasic, in good condition
Runway end identifier lights: yesyes
Touchdown point: yes, no lightsyes, no lights
Obstructions: 74 ft. tree, 2187 ft. from runway, 105 ft. right of centerline, 26:1 slope to clear102 ft. tree, 1452 ft. from runway, 32 ft. right of centerline, 12:1 slope to clear

Airport Ownership and Management from official FAA records

Ownership: Publicly-owned
Owner: BULLOCK COUNTY
PO BOX 352
UNION SPRINGS, AL 36089
Phone 334-738-3839
Manager: FRANKLIN FLD ARPT AUTHORITY
PO BOX 522
UNION SPRINGS, AL 36089
Phone 334-750-2109
334-738-3883.

Airport Operational Statistics

Aircraft based on the field: 10
Single engine airplanes: 10
    
Aircraft operations: avg 125/week *
88% transient general aviation
12% local general aviation
* for 12-month period ending 07 February 2020

Additional Remarks

DEER ON & INVOF ARPT.
FOR CD CTC MONTGOMERY APCH AT 334-284-4575. WHEN APCH CLSD FOR CD CTC ATLANTA ARTCC AT 770-210-7692.

Instrument Procedures

There are no published instrument procedures at 07A.

Some nearby airports with instrument procedures:

06A - Moton Field Municipal Airport (19 nm N)
KTOI - Troy Municipal Airport at N Kenneth Campbell Field (21 nm SW)
11A - Clayton Municipal Airport (24 nm SE)
KMGM - Montgomery Regional Airport (Dannelly Field) (31 nm W)
KMXF - Maxwell Air Force Base (31 nm NW)
 
Loc | Ops | Rwys | IFR | FBO | Links
Com | Nav | Svcs | Stats | Notes

Continental Services
AirBoss

 
Area around 07A (Franklin Field Airport)
 
Road maps at: MapQuest Bing Google
 
Aerial photo
WARNING: Photo may not be current or correct
Aerial photo of 07A (Franklin Field Airport)
Photo courtesy of Goodwyn, Mills and Cawood, Inc.; Southern Resources Mapping
Taken in September 2015
looking north.

Do you have a better or more recent aerial photo of Franklin Field Airport that you would like to share? If so, please send us your photo.

 
Sectional chart

 
Airport distance calculator
Flying to Franklin Field Airport? Find the distance to fly.

From to 07A

Sunrise and sunset
Times for 30-Sep-2020
 Local
(UTC-5)
 Zulu
(UTC)
Morning civil twilight06:1411:14
Sunrise06:3811:38
Sunset18:2823:28
Evening civil twilight18:5223:52

Current date and time
Zulu (UTC)  01-Oct-2020 02:42:47
Local (UTC-5)  30-Sep-2020 21:42:47
 
METAR
KTOI 
22nm SW 
010153Z AUTO 00000KT 10SM CLR 16/14 A3007 RMK AO2 SLP179 T01560139
KMXF 
31nm NW 
010156Z AUTO 00000KT 10SM CLR 16/14 A3005 RMK AO2 SLP178 T01590141
KMGM 
31nm W 
010153Z 00000KT 10SM CLR 16/13 A3006 RMK AO2 SLP177 T01560133
KAUO 
34nm NE 
010156Z AUTO 32003KT 10SM CLR 17/14 A3008 RMK AO2 SLP204 T01670139
KEUF 
37nm E 
010158Z AUTO 00000KT 10SM CLR 13/12 A3007 RMK AO2 SLP180 T01330122
K1A9 
39nm NW 
010215Z AUTO 00000KT 10SM CLR 14/14 A3006 RMK AO2 T01420142
KLSF 
42nm E 
010156Z AUTO 13003KT 10SM CLR 14/13 A3005 RMK AO2 SLP181 T01400127 CHINO RWY15 $
TAF
KTOI 
22nm SW 
301720Z 3018/0118 30006KT P6SM SKC FM010000 00000KT P6SM SKC
NOTAMs
Click for the latest NOTAMs
NOTAMs are issued by the DoD/FAA and will open in a separate window not controlled by AirNav.

 

 
 

FBO, Fuel Providers, and Aircraft Ground Support

  
 Business Name 
 
 Contact 
 
 Services / Description 
 
Fuel Prices
 
Comments
  
Franklin Field Airport Authority 334-750-2109
[web site]
[email]
Aviation fuel, Aircraft parking (ramp or tiedown), Hangar leasing / sales, Pilots lounge / snooze room, Internet access, Restrooms

More info about Franklin Field Airport Authority
independent
100LL
SS $4.05 
 Updated 02-Sep-2020
 
   1 read write
SS=Self service
Update Fuel Prices
 

Would you like to see your business listed on this page?

 If your business provides an interesting product or service to pilots, flight crews, aircraft, or users of the Franklin Field Airport, you should consider listing it here.  To start the listing process, click on the button below
 
Add a business
 

Other Pages about Franklin Field Airport

www.franklinfieldairport.com
 
Update a link
 
Copyright © AirNav, LLC. All rights reserved. Privacy Policy  Contact